Temp
62 63 64 64 64 63 64 64 64 64 64 64 64 64 63 63 63 65 61 69 69 68 67 72 74 74 75 71 71 70 57 55 60 62 64 73 69 71 72 71 72 72 69 74 74
62 62 63 64 63 63 63 64 64 64 63 63 64 63 63 63 61 61 69 69 68 68 69 69 69 72 65 67 67 61 54 59 69 68 68 71 71 70 66 67 67 68 71 73 68
61 61 61 62 62 62 62 63 63 63 63 63 63 63 63 63 57 63 68 68 68 68 69 70 70 68 62 65 64 62 56 66 68 67 69 68 69 73 67 64 70 67 68 69 65
59 61 60 60 61 62 61 63 63 63 63 63 63 63 62 62 47 66 67 67 67 68 68 67 65 60 58 58 66 57 65 67 66 66 66 64 71 68 68 68 74 74 73 69 64
59 58 59 59 60 59 62 61 63 63 63 63 62 62 60 54 57 68 66 67 69 67 64 64 61 60 57 61 63 59 62 65 65 63 64 67 64 66 67 72 73 74 72 70 67
58 57 59 58 58 59 60 61 61 62 62 63 62 62 57 47 68 71 70 68 69 66 64 64 62 65 59 59 59 61 62 63 64 63 63 61 61 63 66 71 71 71 69 70 70
58 58 57 59 58 59 59 60 61 62 62 63 63 62 56 54 70 70 69 67 68 67 63 66 66 60 60 56 62 60 54 58 58 61 60 61 55 57 65 68 70 69 68 71 72
57 57 57 56 59 59 59 60 61 61 62 63 62 56 47 67 68 66 69 66 69 69 67 68 67 62 59 59 57 52 52 45 57 59 60 58 47 60 66 64 64 66 66 69 72
57 56 57 56 56 58 59 60 60 61 61 62 56 50 45 63 60 66 67 62 65 66 66 69 64 57 57 50 45 47 40 44 51 60 57 54 47 60 65 65 63 63 66 67 69
56 56 56 57 56 56 58 59 59 59 59 60 56 47 49 50 61 65 67 66 60 60 58 57 55 50 50 47 37 42 42 47 46 52 52 49 49 56 58 56 57 59 61 63 66
57 56 56 57 57 56 55 53 47 46 51 48 48 49 50 59 64 59 64 61 60 55 46 52 45 41 48 52 54 53 49 49 51 52 48 47 48 54 58 57 56 57 59 61 64
57 56 56 56 57 58 53 46 49 49 43 52 52 52 55 58 51 56 64 52 51 44 49 46 40 51 56 55 52 50 46 47 50 52 47 47 47 52 55 56 58 59 59 61 63
57 56 56 56 56 54 48 49 55 53 41 47 51 48 49 54 49 51 57 53 48 45 46 42 48 54 53 51 49 47 45 46 47 47 49 45 42 48 54 59 61 62 63 62 64
57 56 56 56 49 51 46 54 56 51 33 39 43 49 48 50 46 59 59 55 50 44 46 45 53 50 48 48 49 43 51 50 47 41 33 45 30 46 52 52 56 59 60 63 64
56 56 56 56 49 47 53 57 54 47 22 43 44 57 52 44 47 49 59 53 45 46 47 41 45 44 44 47 51 45 50 48 44 38 36 36 32 41 51 49 52 55 57 57 60
56 56 55 52 50 54 57 55 47 30 22 35 42 41 41 46 46 50 49 54 54 48 48 46 49 48 47 51 51 51 46 45 41 38 23 36 36 36 46 51 53 55 55 58 58
55 54 52 54 46 55 55 46 29 23 38 31 36 41 41 39 39 43 40 38 37 31 33 38 40 46 48 44 48 46 40 23 19 18 20 39 35 41 49 51 52 52 54 55 56
55 53 52 52 54 52 47 34 22 31 31 40 40 41 36 42 39 37 37 35 45 43 35 30 27 41 47 46 40 41 41 27 19 22 26 34 29 39 52 52 52 56 54 52 53
54 51 49 50 50 49 39 26 27 31 35 38 40 33 33 40 39 36 34 35 41 45 36 33 34 46 46 49 48 40 35 44 32 22 23 30 37 47 50 51 50 49 52 52 53
49 47 46 51 50 44 33 29 31 34 38 41 30 36 29 34 34 34 34 39 40 47 49 39 30 42 45 47 47 44 47 33 28 14 17 29 31 35 41 47 50 49 48 49 50
47 38 46 51 48 36 28 28 29 37 38 33 34 31 35 33 36 34 36 41 45 45 48 40 37 32 41 37 38 39 36 40 39 33 26 24 30 42 44 49 48 48 51 48 49
43 30 48 49 33 32 31 30 39 36 40 34 33 34 34 38 35 33 36 41 48 48 40 39 36 29 33 43 47 46 41 42 31 28 31 30 30 47 47 50 49 49 50 49 48
33 34 48 45 27 28 32 32 35 34 35 33 32 34 39 36 32 39 39 48 49 46 42 43 33 28 28 33 39 37 43 45 43 38 30 24 31 49 49 48 50 48 46 51 48
34 29 35 38 36 29 29 30 31 38 36 38 36 38 36 33 36 33 38 45 49 46 48 47 37 33 29 34 36 32 38 42 41 31 33 33 37 44 46 47 48 49 49 50 52
32 31 32 26 30 32 31 31 29 30 35 38 33 35 33 27 30 30 33 41 45 47 44 42 26 34 38 41 41 37 36 38 37 39 33 37 38 45 48 48 50 51 51 51 52
32 30 31 32 32 30 32 27 30 32 33 32 31 35 36 31 34 29 36 35 36 44 42 43 30 31 24 35 37 34 39 39 40 41 40 41 41 52 54 52 48 52 53 53 52
36 41 37 34 31 29 28 28 30 36 36 39 37 35 33 38 43 41 42 42 41 37 35 33 32 26 25 30 30 26 34 37 40 42 42 36 44 51 50 51 52 51 52 53 54
MSLP
1016.85 1016.62 1016.41 1016.19 1016.01 1015.91 1016.07 1016.12 1016.22 1016.44 1016.57 1016.71 1016.83 1016.71 1016.66 1016.49 1016.28 1015.95 1015.40 1014.74 1014.62 1014.70 1014.67 1013.98 1013.40 1012.90 1012.39 1012.12 1012.05 1011.77 1011.55 1010.81 1010.16 1009.75 1009.26 1009.21 1009.81 1010.04 1010.36 1010.66 1011.03 1011.69 1012.46 1012.74 1014.12
1016.82 1016.49 1016.21 1015.98 1015.77 1015.83 1015.75 1015.94 1016.05 1016.22 1016.41 1016.56 1016.67 1016.67 1016.68 1016.65 1016.38 1015.41 1014.59 1014.39 1014.55 1014.79 1014.61 1013.81 1013.18 1012.70 1012.56 1012.20 1012.12 1011.96 1011.52 1010.74 1009.99 1009.79 1009.45 1009.50 1009.84 1010.33 1010.72 1010.95 1011.58 1012.48 1013.24 1013.87 1014.92
1016.66 1016.42 1016.16 1015.93 1015.80 1015.72 1015.72 1015.73 1015.93 1016.08 1016.26 1016.39 1016.44 1016.64 1016.75 1016.71 1016.07 1014.20 1014.34 1014.37 1014.62 1014.82 1014.63 1014.17 1013.55 1013.04 1012.68 1012.21 1012.16 1011.83 1011.48 1010.81 1010.40 1010.48 1010.31 1010.13 1010.04 1010.40 1010.82 1011.22 1011.37 1012.25 1013.45 1014.28 1015.29
1016.44 1016.21 1016.07 1016.01 1015.80 1015.67 1015.65 1015.63 1015.74 1015.83 1016.09 1016.25 1016.33 1016.60 1016.82 1016.54 1015.69 1014.26 1014.30 1014.28 1014.62 1014.62 1014.45 1014.10 1013.79 1013.31 1012.75 1012.30 1012.01 1011.95 1011.42 1011.33 1011.34 1011.24 1011.16 1010.87 1010.42 1010.48 1010.69 1010.94 1010.94 1011.21 1012.07 1013.72 1015.02
1015.75 1016.22 1016.03 1016.05 1015.83 1015.73 1015.52 1015.61 1015.60 1015.70 1015.76 1016.08 1016.20 1016.55 1016.89 1016.17 1014.80 1014.16 1014.27 1014.43 1014.34 1014.46 1014.23 1014.05 1013.71 1013.15 1012.74 1012.19 1012.10 1011.94 1011.87 1011.67 1011.75 1012.08 1011.95 1011.67 1011.34 1011.16 1010.92 1011.00 1011.27 1011.49 1012.33 1013.24 1014.25
1015.66 1016.00 1015.70 1015.94 1016.02 1015.73 1015.57 1015.39 1015.60 1015.43 1015.48 1015.75 1016.02 1016.48 1016.77 1015.66 1014.33 1014.12 1014.24 1014.22 1014.13 1014.15 1014.13 1014.04 1013.63 1013.17 1012.96 1012.51 1012.33 1012.24 1012.26 1012.15 1012.15 1012.45 1012.46 1012.50 1012.10 1011.73 1011.29 1011.09 1011.40 1011.83 1012.39 1012.85 1013.54
1015.46 1015.21 1015.59 1015.64 1015.82 1015.54 1015.44 1015.10 1015.44 1015.35 1015.32 1015.50 1015.77 1016.26 1015.96 1014.77 1014.14 1014.35 1014.51 1014.32 1014.12 1013.97 1013.96 1014.11 1013.91 1013.67 1013.15 1013.00 1012.90 1012.89 1013.05 1012.71 1012.68 1012.85 1012.83 1012.87 1012.76 1011.99 1011.52 1011.51 1011.52 1011.75 1012.14 1012.41 1012.58
1015.23 1015.22 1015.22 1015.33 1015.43 1015.41 1015.39 1015.44 1014.65 1014.89 1015.06 1015.25 1015.72 1016.43 1015.48 1014.44 1014.11 1014.48 1014.36 1014.29 1014.30 1014.08 1014.18 1014.08 1014.16 1013.94 1013.61 1013.72 1013.73 1013.78 1013.66 1013.26 1012.58 1012.91 1013.10 1013.29 1012.40 1012.03 1011.61 1011.87 1011.78 1011.75 1012.04 1012.00 1012.01
1015.15 1014.88 1014.85 1015.25 1015.35 1015.20 1015.21 1015.05 1014.62 1014.79 1015.04 1015.07 1015.87 1016.35 1015.64 1014.78 1014.35 1014.08 1014.21 1014.17 1014.14 1014.03 1014.08 1014.12 1014.31 1014.16 1014.02 1014.13 1014.28 1014.06 1013.56 1013.39 1012.93 1012.71 1013.13 1013.52 1012.90 1012.09 1011.58 1011.63 1011.90 1011.78 1011.81 1011.68 1011.50
1015.04 1014.66 1014.60 1014.60 1014.96 1015.05 1015.24 1014.86 1014.78 1014.96 1015.10 1015.19 1015.65 1016.48 1015.45 1014.38 1013.64 1013.62 1014.04 1014.10 1014.15 1014.19 1014.33 1014.46 1014.41 1014.16 1014.08 1013.97 1012.96 1013.07 1013.68 1013.15 1013.15 1013.16 1013.33 1013.66 1013.52 1012.67 1012.10 1011.83 1011.89 1011.97 1011.85 1011.66 1011.38
1014.86 1014.72 1014.42 1014.46 1014.63 1014.87 1015.47 1015.45 1015.65 1015.25 1014.74 1013.83 1014.29 1014.13 1014.05 1013.68 1013.56 1013.85 1013.75 1014.11 1014.19 1014.31 1014.30 1014.53 1014.39 1013.46 1013.44 1013.30 1012.81 1012.16 1012.77 1012.82 1012.92 1013.66 1013.94 1013.97 1013.75 1013.19 1012.47 1012.15 1012.11 1012.18 1011.92 1011.78 1011.55
1014.59 1014.51 1014.51 1014.22 1014.19 1014.46 1014.94 1014.50 1014.36 1014.67 1014.33 1013.75 1013.83 1013.98 1013.97 1013.70 1013.80 1013.51 1013.76 1014.26 1014.35 1014.17 1014.34 1014.53 1013.65 1013.47 1013.15 1012.91 1012.77 1012.72 1012.78 1012.68 1013.20 1013.77 1014.47 1014.14 1013.43 1012.78 1012.35 1011.99 1011.53 1011.57 1011.67 1011.49 1011.23
1014.28 1014.32 1014.04 1014.03 1014.04 1014.30 1014.60 1014.41 1014.36 1014.46 1014.34 1012.84 1012.83 1013.50 1013.80 1014.02 1013.65 1013.42 1013.53 1013.70 1013.90 1014.17 1013.83 1013.65 1012.90 1013.21 1012.86 1012.59 1012.58 1012.74 1013.03 1013.38 1013.52 1014.01 1014.13 1014.05 1012.91 1011.98 1010.93 1010.50 1010.39 1010.67 1010.80 1010.91 1010.61
1013.92 1014.05 1014.04 1013.84 1014.24 1014.05 1013.78 1014.23 1014.24 1014.94 1014.60 1012.45 1011.89 1012.22 1013.48 1013.91 1013.53 1012.93 1013.15 1013.33 1013.45 1013.60 1014.02 1013.80 1013.12 1013.06 1012.98 1012.61 1012.83 1013.11 1013.31 1013.78 1014.12 1014.49 1015.17 1014.52 1013.47 1011.56 1010.22 1009.78 1009.64 1009.96 1010.31 1010.15 1010.08
1013.55 1013.71 1013.74 1014.04 1013.60 1013.04 1013.02 1013.78 1014.23 1014.46 1012.80 1010.55 1011.00 1011.20 1012.18 1013.45 1013.12 1012.92 1012.95 1013.33 1013.22 1013.30 1013.69 1013.31 1013.06 1013.08 1012.88 1012.84 1013.26 1013.74 1013.76 1014.34 1015.14 1015.73 1016.14 1015.24 1014.99 1011.61 1010.34 1009.76 1009.64 1009.31 1009.40 1009.60 1009.65
1013.07 1013.19 1013.33 1013.10 1013.22 1012.68 1012.82 1013.55 1014.49 1013.80 1011.51 1010.75 1010.67 1010.99 1011.86 1012.72 1013.10 1013.10 1013.34 1013.46 1013.22 1013.56 1013.53 1013.72 1013.67 1013.26 1013.14 1013.45 1013.68 1014.16 1014.95 1015.79 1016.30 1016.86 1016.63 1015.72 1014.92 1011.38 1010.73 1009.53 1008.85 1008.60 1008.87 1008.94 1009.14
1012.72 1012.77 1012.84 1012.33 1012.06 1012.67 1012.84 1013.72 1013.33 1011.81 1011.48 1011.33 1010.63 1010.80 1011.23 1012.01 1012.95 1013.00 1013.53 1013.61 1013.11 1013.73 1013.94 1014.38 1014.40 1013.84 1013.67 1013.76 1014.02 1014.46 1015.34 1016.95 1017.91 1017.87 1016.47 1014.84 1014.40 1010.67 1009.58 1008.87 1008.78 1009.01 1009.24 1009.50 1009.56
1012.34 1012.53 1012.32 1012.12 1011.97 1012.66 1013.08 1013.73 1012.68 1011.50 1011.65 1010.75 1010.54 1010.87 1011.21 1011.68 1012.54 1013.38 1013.44 1013.53 1013.14 1012.79 1013.37 1014.21 1014.72 1013.82 1013.55 1013.13 1013.38 1014.16 1014.71 1015.50 1016.63 1017.21 1016.37 1015.14 1012.80 1010.30 1009.01 1008.60 1008.80 1008.98 1009.36 1009.77 1010.25
1012.21 1012.32 1012.31 1012.11 1012.31 1012.82 1012.74 1012.74 1012.19 1011.96 1011.84 1010.90 1010.91 1011.23 1011.42 1011.39 1012.01 1013.12 1013.46 1012.93 1012.61 1012.39 1012.62 1013.29 1013.57 1013.24 1013.27 1013.06 1013.52 1014.42 1014.50 1014.89 1016.02 1017.17 1016.47 1014.59 1012.34 1010.44 1009.23 1008.87 1008.96 1009.37 1009.67 1009.93 1010.01
1012.04 1012.02 1011.86 1011.87 1012.31 1012.98 1012.32 1012.27 1012.36 1011.90 1011.63 1011.38 1010.86 1010.87 1011.08 1011.33 1011.94 1012.28 1012.82 1012.53 1012.12 1011.99 1012.04 1013.18 1013.75 1013.53 1013.59 1013.63 1013.53 1013.62 1014.48 1015.24 1015.81 1016.61 1015.93 1013.52 1012.05 1010.27 1009.64 1009.09 1009.09 1009.38 1009.82 1010.01 1010.01
1012.03 1012.15 1012.04 1012.05 1012.65 1013.01 1011.72 1012.09 1012.03 1011.92 1011.76 1012.40 1011.69 1011.38 1011.01 1011.08 1011.51 1011.67 1011.58 1011.65 1011.71 1011.64 1012.20 1013.50 1013.61 1014.48 1014.05 1013.35 1012.93 1013.72 1013.92 1014.15 1014.87 1015.29 1014.71 1013.43 1011.44 1009.69 1009.07 1008.58 1009.44 1009.84 1009.88 1010.23 1010.53
1012.26 1012.68 1012.09 1012.19 1012.85 1012.33 1012.09 1011.50 1011.09 1011.85 1012.06 1012.55 1012.59 1012.16 1011.61 1010.88 1011.09 1011.21 1010.70 1010.23 1010.25 1010.79 1011.60 1013.34 1013.40 1013.75 1013.59 1013.33 1013.23 1013.12 1012.86 1013.15 1013.74 1014.35 1014.10 1013.33 1011.68 1009.92 1009.29 1008.94 1009.51 1010.00 1009.92 1010.16 1010.71
1012.92 1012.84 1012.21 1012.30 1012.69 1012.54 1012.20 1011.86 1011.57 1011.59 1011.93 1012.34 1012.13 1012.41 1011.86 1011.60 1011.30 1010.37 1010.21 1009.57 1009.82 1010.30 1010.52 1011.97 1012.56 1013.36 1014.19 1014.71 1013.66 1013.54 1013.01 1012.94 1013.06 1013.36 1013.44 1013.11 1011.22 1009.93 1009.76 1009.73 1009.74 1010.01 1010.05 1010.16 1010.54
1013.43 1013.15 1012.72 1012.67 1012.60 1013.02 1012.81 1012.40 1011.87 1011.71 1011.67 1011.95 1011.89 1011.96 1012.37 1012.47 1011.06 1010.61 1010.16 1009.61 1009.51 1009.90 1010.20 1010.82 1011.66 1012.14 1012.21 1012.18 1012.70 1013.29 1012.82 1012.72 1012.60 1012.92 1012.53 1012.23 1010.87 1010.50 1010.06 1009.88 1009.93 1010.00 1010.00 1010.01 1010.24
1013.26 1012.99 1012.81 1012.68 1012.64 1012.85 1012.93 1012.41 1012.11 1011.98 1011.60 1011.63 1011.81 1011.18 1011.42 1011.76 1011.38 1011.26 1010.71 1010.09 1010.12 1010.13 1010.12 1010.95 1011.88 1012.35 1012.17 1012.02 1012.16 1012.16 1012.14 1012.21 1012.35 1012.01 1012.07 1011.47 1010.49 1009.97 1009.89 1009.72 1009.54 1009.48 1009.65 1010.04 1010.14
1012.81 1012.84 1012.89 1012.31 1012.24 1012.40 1012.50 1011.96 1011.53 1011.41 1011.09 1011.00 1010.58 1010.73 1011.07 1010.93 1010.66 1010.47 1010.36 1010.64 1010.30 1010.45 1010.69 1011.09 1012.08 1012.78 1012.79 1012.58 1012.60 1012.20 1011.96 1011.91 1011.44 1010.97 1010.92 1010.42 1009.65 1008.65 1008.83 1009.03 1009.25 1009.28 1009.37 1009.62 1009.78
1012.31 1011.93 1011.95 1011.58 1011.67 1011.86 1011.12 1011.01 1010.67 1010.82 1010.48 1010.28 1010.60 1010.76 1010.59 1009.84 1009.92 1010.49 1010.82 1010.95 1010.86 1011.13 1011.45 1012.53 1012.87 1013.58 1013.31 1013.36 1013.48 1012.70 1011.79 1011.29 1010.89 1010.55 1010.17 1009.58 1008.75 1008.09 1008.28 1008.75 1008.96 1009.07 1009.04 1009.07 1009.06
Wind_Speed
16 17 16 15 14 16 16 13 11 9 8 7 6 5 7 8 11 9 8 1 4 8 10 8 7 8 5 4 1 2 3 5 9 6 4 10 8 3 4 6 4 3 5 12 17
17 18 17 16 14 10 13 13 12 10 8 7 6 5 4 6 9 11 4 3 4 5 6 6 6 5 3 3 3 3 3 6 8 4 7 10 9 8 2 4 5 7 4 15 15
18 17 16 16 14 11 10 10 9 11 10 8 6 4 3 5 6 1 7 5 1 5 7 6 6 4 6 5 5 5 4 6 3 5 8 1 7 9 7 8 7 12 10 14 13
13 12 13 14 12 13 10 10 10 9 12 9 6 3 2 5 4 3 4 3 2 6 8 4 5 4 4 7 8 3 6 7 4 5 4 3 3 3 6 5 2 4 21 15 14
11 12 8 13 12 13 12 12 11 11 10 11 9 6 2 5 8 5 2 3 4 5 8 8 7 5 6 5 6 7 7 1 0 2 5 5 5 6 7 6 5 8 18 15 13
12 13 9 6 17 11 15 11 14 10 8 12 11 8 4 12 2 2 2 1 2 6 6 6 3 7 3 5 6 1 9 6 4 4 3 3 5 4 7 8 8 7 7 13 13
16 12 12 11 10 12 13 11 14 12 10 11 12 7 10 13 2 1 4 4 2 4 3 7 2 3 3 1 4 3 3 4 4 6 5 5 7 8 9 6 9 9 7 8 11
15 13 13 11 10 13 12 14 9 9 9 7 12 4 5 6 8 3 5 3 4 3 3 4 5 6 2 3 2 3 3 4 10 11 5 7 6 13 10 9 8 8 10 9 11
16 12 13 12 13 12 11 11 7 8 10 5 6 3 4 4 5 10 6 5 6 4 2 3 3 4 3 5 3 4 3 7 5 13 6 8 3 9 8 13 11 9 9 9 10
14 14 11 14 12 11 14 7 4 2 3 2 3 2 3 4 6 9 8 6 4 6 5 4 5 5 6 9 8 9 5 7 9 5 5 7 10 12 4 2 5 6 8 8 9
12 12 12 13 15 13 9 3 2 7 9 9 5 3 3 2 4 6 14 8 7 6 7 8 5 12 13 15 14 5 4 9 10 4 3 8 9 12 10 7 8 9 9 9 10
10 12 11 13 14 17 5 4 2 3 6 16 9 14 2 2 4 8 12 11 9 10 11 7 15 11 10 10 11 7 7 4 3 9 3 8 11 11 11 9 10 11 10 12 10
9 11 13 13 10 11 8 9 5 8 4 10 19 5 6 7 5 13 16 14 12 13 15 12 2 16 12 9 11 9 8 6 5 2 7 6 9 13 11 19 17 14 15 10 15
10 10 11 13 2 4 11 12 5 7 4 8 16 10 6 2 8 12 12 12 7 15 11 11 14 5 14 10 7 11 5 7 4 5 3 4 7 8 7 3 12 14 14 18 17
14 9 12 7 4 12 2 11 4 3 7 15 11 11 15 10 9 8 10 9 11 7 10 5 7 8 10 9 7 2 2 6 1 1 4 3 4 7 8 7 7 11 11 10 10
14 8 10 6 7 6 7 13 3 6 10 5 8 15 11 18 10 10 5 1 2 9 7 5 4 6 4 6 7 10 8 6 2 1 4 8 7 7 9 10 7 7 4 2 3
13 5 6 5 4 8 8 7 6 7 6 7 6 14 22 12 10 9 10 7 9 7 7 0 4 2 2 7 6 8 11 2 2 0 7 5 9 11 6 3 1 2 7 7 6
9 2 2 4 4 5 7 6 9 7 3 3 8 14 17 14 12 7 12 9 13 9 11 8 5 12 6 14 7 15 13 6 9 6 2 2 9 5 7 1 3 6 5 1 6
9 3 2 2 4 4 5 9 5 2 5 8 11 7 12 13 9 9 7 13 15 15 6 8 5 12 10 6 9 13 13 4 3 2 3 6 6 8 7 6 4 2 5 6 6
3 2 4 4 8 5 6 7 7 2 2 8 8 9 10 14 11 15 15 11 8 16 11 3 3 8 7 3 7 3 5 7 0 4 4 5 5 6 4 10 5 4 3 3 2
1 1 3 5 6 4 3 6 3 5 4 3 5 9 8 8 12 11 8 9 19 17 12 5 0 1 5 11 13 6 5 5 5 4 3 2 5 3 3 8 10 7 5 2 4
1 1 2 3 3 2 5 4 5 7 6 4 3 4 3 12 14 11 15 11 23 17 19 14 4 5 9 3 10 12 7 14 5 5 4 2 7 1 6 10 10 6 3 4 3
3 2 2 2 3 2 3 4 3 4 7 5 7 6 4 4 5 16 12 11 15 18 15 13 5 5 5 3 3 6 14 11 12 3 6 5 5 4 7 7 6 5 2 2 3
2 2 1 1 1 1 2 2 2 7 6 6 5 8 8 10 5 3 11 7 12 16 16 15 6 8 11 5 8 9 14 19 16 10 14 12 15 8 5 5 6 7 7 7 7
2 2 1 3 6 6 2 2 7 6 5 9 6 11 11 7 1 4 3 5 7 10 7 9 6 9 15 14 9 9 16 19 21 18 12 18 21 16 11 8 8 5 4 8 8
5 4 1 1 2 9 11 6 10 7 8 5 8 12 11 11 14 10 6 5 8 15 10 7 9 5 5 9 11 13 11 19 22 22 23 21 21 18 14 8 6 7 7 8 8
1 3 2 5 5 6 7 8 8 5 9 11 12 7 11 17 13 4 2 8 4 4 6 1 4 3 12 4 8 15 15 17 16 21 18 23 25 25 20 16 13 10 9 9 9
Wind_Direction
296 288 293 292 287 250 233 228 232 233 227 241 250 263 286 307 309 267 244 290 1 346 323 280 265 267 286 242 300 299 278 237 247 242 264 131 171 328 21 120 122 101 48 120 121
320 305 292 289 292 271 258 243 231 223 227 224 238 249 278 316 298 270 194 109 345 330 295 280 273 217 255 235 189 229 217 239 267 307 215 159 177 155 137 165 139 94 63 114 116
289 313 296 298 290 278 284 281 256 235 215 217 215 235 274 306 280 211 81 99 263 281 265 301 300 290 207 210 204 202 226 268 343 28 11 22 191 156 181 201 186 169 158 141 140
277 297 324 302 284 281 276 290 266 255 226 207 199 206 265 275 260 94 96 63 219 256 245 224 239 200 222 202 216 234 247 276 22 39 341 303 210 216 187 207 77 187 162 154 165
267 271 305 322 295 295 277 268 281 259 243 209 180 168 221 221 258 120 119 152 178 209 212 226 225 223 206 217 236 199 274 117 270 30 284 336 289 268 212 219 98 72 150 165 170
284 257 280 293 306 286 292 259 265 261 258 216 179 157 236 245 67 117 206 172 187 189 218 247 270 243 311 272 215 49 237 229 206 223 238 250 254 144 253 267 153 141 183 173 180
295 273 247 275 282 291 285 289 250 246 234 231 191 186 235 231 89 140 208 235 174 209 204 217 257 276 230 220 47 35 286 288 245 225 242 189 263 224 238 297 235 172 204 210 191
308 282 241 258 279 292 275 270 274 258 226 227 191 147 243 341 306 199 218 191 211 212 286 201 318 253 246 73 102 202 238 220 199 197 180 164 250 221 213 222 225 216 202 217 207
329 296 250 225 256 291 290 288 279 259 227 189 159 200 227 313 243 222 217 205 201 167 254 183 185 240 161 184 149 236 223 220 270 186 157 184 271 240 261 211 230 233 223 222 205
332 327 271 233 233 260 284 300 285 210 210 177 124 200 216 219 192 199 199 223 179 174 153 189 216 211 184 208 196 165 202 215 208 193 243 203 242 288 317 19 236 266 276 260 255
321 331 318 259 224 225 258 215 181 209 213 193 170 187 164 128 100 220 189 194 201 194 186 204 211 200 206 209 264 359 263 210 198 141 158 242 251 248 249 236 211 227 237 245 251
313 320 327 310 246 219 200 230 118 49 222 226 184 212 84 141 166 197 179 187 197 197 212 172 230 218 224 224 229 240 264 241 99 139 155 256 252 236 228 240 229 228 226 231 249
284 306 317 312 274 233 201 254 117 47 271 202 214 169 163 172 201 191 184 199 188 205 203 208 227 210 230 225 216 225 218 249 248 70 218 269 263 232 224 223 221 224 229 235 229
271 284 305 323 330 214 213 222 233 111 268 197 187 195 150 321 211 172 199 183 199 214 208 231 247 220 231 228 204 229 205 252 327 85 252 111 289 312 302 274 208 222 227 232 237
266 267 291 270 271 205 135 197 171 79 245 165 157 154 158 167 142 186 185 217 213 202 200 205 209 188 227 199 200 214 343 173 230 321 352 181 273 251 243 289 224 228 221 226 225
257 266 300 268 215 274 172 160 140 204 220 148 137 164 145 188 187 141 176 270 260 211 232 183 336 182 214 205 220 123 102 84 88 200 267 192 211 220 218 229 222 245 273 303 223
257 262 294 239 222 214 153 163 238 207 137 175 168 167 174 171 146 168 165 186 160 137 178 324 214 267 269 178 174 154 147 112 360 18 224 187 205 236 291 284 304 288 91 39 42
225 235 273 254 186 158 164 205 229 194 243 224 161 169 190 160 183 166 174 177 206 222 145 171 205 196 194 185 178 186 184 156 193 193 212 32 237 261 222 15 7 154 127 61 294
165 217 252 244 148 202 192 194 225 184 318 172 155 181 200 195 146 146 200 198 195 202 188 182 236 176 179 179 157 191 224 239 65 44 57 213 258 297 233 261 229 201 170 240 249
201 243 260 164 162 221 220 215 191 212 124 276 179 182 183 188 189 179 180 178 202 218 236 33 114 182 171 213 218 144 160 211 282 168 239 254 235 223 195 229 212 189 192 223 87
226 306 302 148 156 213 197 208 150 221 116 43 292 191 211 171 197 188 190 182 201 192 215 185 175 164 121 211 183 159 207 199 143 223 214 314 251 320 309 144 121 113 92 357 34
101 217 111 128 220 238 219 208 124 140 145 141 59 332 283 214 195 198 205 204 191 192 197 188 162 166 194 209 220 206 212 192 164 206 242 48 270 60 65 116 125 134 83 62 82
140 254 113 175 229 233 330 308 52 140 169 157 167 191 342 294 254 211 196 214 182 190 187 159 188 167 157 316 341 224 226 215 234 321 204 159 257 113 101 98 151 144 120 80 52
136 223 261 245 123 112 335 301 208 215 166 162 211 197 232 281 245 323 226 236 210 195 205 168 179 205 220 161 141 192 210 220 217 217 229 234 262 266 208 224 164 177 194 188 184
133 231 231 192 223 217 116 288 190 243 198 183 204 198 192 215 213 219 221 273 277 219 202 192 191 223 243 255 243 189 197 211 220 229 215 236 250 245 250 240 244 255 212 199 197
160 182 268 300 175 182 204 218 224 193 176 202 221 199 205 221 208 210 214 199 217 207 206 234 235 197 270 256 250 258 248 210 220 224 230 241 248 254 244 257 274 275 273 266 220
259 262 226 225 180 176 200 208 218 197 204 208 207 226 217 222 225 313 16 316 355 291 181 286 197 205 249 263 285 260 243 251 248 228 226 233 238 258 261 256 262 259 254 249 257